Location: Cruquius
(52.3348°N, 4.6319°E)
Time: 14:11:09
(UTC+00:00)

Meteor 1-10 Rocket - Pass Details

Date: 12 May 2021
Orbit: 837 x 909 km, 81.3° (Epoch: 19 June)

Event Time Altitude Azimuth Distance (km) Brightness Sun altitude
Exits shadow 20:59:37 - 178° (S) 2,590 6.3 -11.4°
Reaches altitude 10° 20:59:57 10° 177° (S) 2,462 6.1 -11.4°
Maximum altitude 21:05:27 64° 97° (E) 947 4.3 -11.9°
Drops below altitude 10° 21:11:06 10° 18° (NNE) 2,521 7.2 -12.5°
Sets 21:13:35 0° 15° (NNE) 3,475 8.0 -12.7°
